Hourly Data Report for June 17, 2021

CARIBOU POINT (AUT)
NOVA SCOTIA
Current Station Operator: ECCC - MSC

45°46'00.000" N
62°41'00.000" W
2.40 m
8200774
71415
WBK

Download Data

Hourly Data (June 2021)
Hourly Data Report for June 17, 2021
TIME
LST
Temp Definition
°C
Dew Point Definition
°C
Rel Hum Definition
%
Precip. Amount Definition
mm

Wind Dir Definition
10's deg

Wind Spd Definition
km/h
Visibility Definition
km
Stn Press Definition
kPa
Hmdx Definition


Wind Chill Definition


Weather Definition


00:00 14.5 13.4 93 0.0 22 8   100.43     LegendNANA
01:00 13.8 11.6 87 0.0 22 10   100.47     LegendNANA
02:00 12.7 11.1 90 0.0 22 12   100.52     LegendNANA
03:00 13.4 9.2 76 0.0 25 12   100.56     LegendNANA
04:00 12.9 8.8 76 0.0 23 9   100.61     LegendNANA
05:00 12.1 9.9 86 0.0 21 7   100.64     LegendNANA
06:00 12.8 10.1 84 0.0 21 10   100.70     LegendNANA
07:00 14.9 10.7 76 0.0 21 7   100.71     LegendNANA
08:00 17.5 9.2 58 0.0 25 12   100.73     LegendNANA
09:00 19.0 8.6 51 0.0 24 15   100.73     LegendNANA
10:00 19.6 7.8 46 0.0 24 18   100.75     LegendNANA
11:00 20.3 7.3 43 0.0 25 25   100.75     LegendNANA
12:00 20.7 7.7 43 0.0 25 24   100.77     LegendNANA
13:00 21.4 7.1 40 0.0 25 25   100.78     LegendNANA
14:00 20.9 6.7 40 0.0 25 22   100.81     LegendNANA
15:00 21.5 6.6 38 0.0 26 23   100.79     LegendNANA
16:00 22.6 6.0 34 0.0 25 24   100.79     LegendNANA
17:00 22.1 6.2 36 0.0 27 31   100.83     LegendNANA
18:00 21.3 7.1 40 0.0 27 20   100.89     LegendNANA
19:00 20.0 7.3 44 0.0 27 20   100.93     LegendNANA
20:00 18.5 7.3 48 0.0 26 12   100.99     LegendNANA
21:00 17.2 6.7 50 0.0 25 9   101.10     LegendNANA
22:00 15.9 7.7 58 0.0 24 8   101.14     LegendNANA
23:00 16.1 5.9 51 0.0 24 11   101.15     LegendNANA

Notes on Data Quality.

Legend

  • E = Estimated
  • M = Missing
  • NA = Not Available*
  • [empty] = Indicates an unobserved value
Date modified: